Location: Ocean City
(38.3360°N, 75.0850°W)
Time: 14:17:55
(UTC-04:00)

MOZHAYETS 4 - Visible Passes

Search period start: 19 May 2019 00:00
Search period end: 29 May 2019 00:00
Orbit: 662 x 681 km, 98.0° (Epoch: 19 May)

Date Brightness Start Highest point End Pass type
(mag) Time Alt. Az. Time Alt. Az. Time Alt. Az.
19 May 8.0 02:56:17 56° ESE 02:56:55 64° ENE 03:01:29 10° N visible
19 May 9.7 04:34:30 11° W 04:34:30 11° W 04:35:53 10° WNW visible
20 May 10.3 01:51:29 11° E 01:53:23 14° ENE 01:55:48 10° NNE visible
20 May 7.8 03:29:43 54° WSW 03:30:01 56° W 03:34:34 10° NNW visible
21 May 9.3 02:24:55 26° E 02:26:11 30° ENE 02:30:11 10° N visible
21 May 8.9 04:03:09 24° W 04:03:16 24° W 04:07:02 10° NW visible
22 May 7.9 02:58:21 56° SE 02:59:09 67° ENE 03:03:44 10° N visible
22 May 9.8 04:36:35 11° W 04:36:41 11° W 04:37:39 10° WNW visible
23 May 10.3 01:53:34 12° E 01:55:35 15° ENE 01:58:10 10° NNE visible
23 May 7.8 03:31:47 50° WSW 03:32:15 52° W 03:36:46 10° NNW visible
24 May 9.3 02:27:00 26° ESE 02:28:24 31° ENE 02:32:28 10° N visible
24 May 8.9 04:05:14 23° W 04:05:31 23° W 04:09:12 10° NW visible
25 May 7.8 03:00:27 54° SE 03:01:23 72° ENE 03:05:58 10° N visible
26 May 10.2 01:55:40 12° E 01:57:48 16° ENE 02:00:31 10° NNE visible
26 May 7.9 03:33:53 46° SW 03:34:29 49° W 03:38:58 10° NNW visible
27 May 9.2 02:29:07 27° ESE 02:30:37 33° ENE 02:34:44 10° N visible
27 May 9.0 04:07:20 22° WSW 04:07:46 22° W 04:11:19 10° NW visible
28 May 7.8 03:02:33 53° SE 03:03:36 76° ENE 03:08:12 10° N visible
